Volver al catálogo

COSMOS 1365 FUEL CORE

ActivoLEO
NORAD 13594·DEBRIS·🇷🇺 Russia

Lanzado May 14, 1982 desde Baikonur Cosmodrome

Loading…

Próximos Pases (próximas 24 horas)

TLE

ActualizadoSource: Space-Track

Época: Sep 14, 2026, 21:47 UTC

1 13594U 82043D   26257.90768807 -.00000101  00000-0 -81640-5 0  9994
2 13594  65.0676  71.8868 0063071 308.7237  50.8200 13.93201110258370

Sigue COSMOS 1365 FUEL CORE en tiempo real con AllMySat

Download on the App Store